Rome, GA

9:02 PM EST on November 21, 2019 (GMT -0500)
Russell

Weather History for KRMG - September, 2019

Change the Weather History Date:

Thursday, September 12, 2019

  Actual Average Record
Temperature  
Mean Temperature 84 °F 73 °F  
Max Temperature 99 °F 85 °F 95 °F (2002)
Min Temperature 68 °F 62 °F 55 °F (1998)
Degree Days  
Heating Degree Days 0 0  
Month to date heating degree days 0 0  
Since 1 July heating degree days 0 0  
Cooling Degree Days 18 8  
Month to date cooling degree days 193 119  
Year to date cooling degree days 1952 1485  
Growing Degree Days 34 (Base 50)    
Moisture  
Dew Point 68 °F    
Average Humidity 66    
Maximum Humidity 93    
Minimum Humidity 33    
Precipitation  
Precipitation 0.00 in 0.13 in 0.57 in (2014)
Month to date precipitation T 1.18  
Year to date precipitation 42.45 36.60  
Sea Level Pressure  
Sea Level Pressure 30.10 in    
Wind  
Wind Speed 2 mph ()    
Max Wind Speed 10 mph    
Max Gust Speed 13 mph    
Visibility 9.2 miles    
Events      
T = Trace of Precipitation, MM = Missing Value Source: Averaged Metar Reports

Daily Weather History Graph

Daily Weather History Graph

Search for Another Location

Airport or City:

Astronomy

Sep. 12, 2019 Rise Set
Actual Time 7:21 AM EDT 7:51 PM EDT
Civil Twilight 6:56 AM EDT 8:17 PM EDT
Nautical Twilight 6:26 AM EDT 8:46 PM EDT
Astronomical Twilight 5:56 AM EDT 9:16 PM EDT
Moon 7:30 PM EDT (9/12) 5:47 AM EDT (9/12)
Length of Visible Light 13h 20m
Length of Day
12h 30m
Waxing Gibbous, 98% of the Moon is Illuminated
Sep 12
Waxing Gibbous
Sep 14
Full
Sep 21
Last Quarter
Sep 28
New
Oct 5
First Quarter

Hourly Weather History & Observations

Time (EDT) Temp. Heat Index Dew Point Humidity Pressure Visibility Wind Dir Wind Speed Gust Speed Precip Events Conditions
12:53 AM 72.0 °F - 68.0 °F 87% 30.13 in 10.0 mi SE 3.5 mph - N/A   Clear
1:53 AM 73.0 °F - 68.0 °F 84% 30.12 in 10.0 mi Calm Calm - N/A   Clear
2:53 AM 71.1 °F - 66.9 °F 87% 30.11 in 9.0 mi Calm Calm - N/A   Clear
3:53 AM 70.0 °F - 66.9 °F 90% 30.10 in 8.0 mi Calm Calm - N/A   Clear
4:53 AM 69.1 °F - 66.9 °F 93% 30.10 in 7.0 mi Calm Calm - N/A   Clear
5:53 AM 69.1 °F - 66.0 °F 90% 30.11 in 7.0 mi Calm Calm - N/A   Clear
6:53 AM 69.1 °F - 66.9 °F 93% 30.14 in 7.0 mi North 3.5 mph - N/A   Clear
7:53 AM 70.0 °F - 66.9 °F 90% 30.15 in 6.0 mi NE 5.8 mph - N/A   Clear
8:53 AM 73.9 °F - 69.1 °F 85% 30.16 in 7.0 mi NE 3.5 mph - N/A   Clear
9:53 AM 79.0 °F - 70.0 °F 74% 30.17 in 10.0 mi Calm Calm - N/A   Clear
10:53 AM 84.0 °F 88.4 °F 70.0 °F 63% 30.17 in 10.0 mi Calm Calm - N/A   Clear
11:53 AM 90.0 °F 96.4 °F 71.1 °F 54% 30.15 in 10.0 mi Variable 3.5 mph - N/A   Clear
12:53 PM 93.0 °F 97.4 °F 68.0 °F 44% 30.14 in 10.0 mi Variable 4.6 mph - N/A   Clear
1:53 PM 96.1 °F 99.3 °F 66.0 °F 37% 30.11 in 10.0 mi North 4.6 mph - N/A   Partly Cloudy
2:53 PM 97.0 °F 101.0 °F 66.9 °F 37% 30.09 in 10.0 mi NNE 6.9 mph - N/A   Mostly Cloudy
3:53 PM 97.0 °F 100.4 °F 66.0 °F 36% 30.06 in 10.0 mi North 8.1 mph - N/A   Partly Cloudy
4:53 PM 99.0 °F 102.3 °F 64.9 °F 33% 30.04 in 10.0 mi North 6.9 mph - N/A   Scattered Clouds
5:53 PM 96.1 °F 98.3 °F 64.0 °F 35% 30.04 in 10.0 mi North 5.8 mph - N/A   Clear
6:53 PM 93.9 °F 97.0 °F 66.0 °F 40% 30.04 in 10.0 mi NNW 4.6 mph - N/A   Clear
7:53 PM 89.1 °F 92.1 °F 66.9 °F 48% 30.04 in 10.0 mi NNE 5.8 mph - N/A   Clear
8:53 PM 84.0 °F 87.8 °F 69.1 °F 61% 30.06 in 10.0 mi Calm Calm - N/A   Clear
9:53 PM 81.0 °F 84.4 °F 70.0 °F 69% 30.07 in 10.0 mi North 3.5 mph - N/A   Clear
10:53 PM 79.0 °F - 70.0 °F 74% 30.07 in 10.0 mi NNE 3.5 mph - N/A   Clear
11:53 PM 77.0 °F - 70.0 °F 79% 30.07 in 10.0 mi Calm Calm - N/A   Clear